Mantar

Indonesia     8˚36′31″S   116˚49′37″E
temp.,
°C
wind,
m/s
gust,
m/s
humid.,
%
clouds,
%
prec.,
mm/h
press.,
hPa
HPBL,
m
29 november, sun
sun2923:00+27˚sse227899 0.1 1009164
02:00+27˚sw118099 1.3 1008134
05:00+26˚sse1182100 0.1 1007144
08:00+28˚sse117487 0.1 1009328
11:00+30˚sse116597 0.3 1008579
14:00+30˚ne226990 2.8 1007570
17:00+29˚s0172100 2.6 1006433
20:00+28˚sw357996 4.6 1008298
30 november, mon
mon3023:00+27˚sw358177 1.8 1009310
02:00+27˚sw457988 4.9 1008243
05:00+27˚sw577895 0.5 1007458
08:00+28˚sw567694 0.5 1009577
11:00+29˚ssw447258 0.4 1009624
14:00+30˚e126735 3.5 1007424
17:00+29˚nne026885 1.3 1007642
20:00+28˚sse227563 1.3 1009352
1 december, tue
tue123:00+27˚nne0179100 0.4 1010159
02:00+26˚nne237985 1.1 1008440
05:00+26˚se117999 0.3 1008290
08:00+27˚ssw228094 0.9 1010231
11:00+29˚sw116892 0.3 1010436
14:00+28˚ne237391 3.5 1007408
17:00+28˚sse116965 1.7 1007508
20:00+27˚ssw237583 1.9 1009339
2 december, wed
wed223:00+27˚ssw4577100 0.4 1009431
02:00+27˚sw5780100 0.5 1007547
05:00+26˚sw468599 4.9 1007250
08:00+27˚sw678198 7.9 1009455
11:00+28˚ssw457265 1.4 1009477
14:00+29˚ssw447248 4.6 1006456
17:00+27˚ssw458067 3.4 1006400
20:00+27˚sw568183 7.9 1008249
3 december, thu
thu323:00+27˚wsw2377100 4.4 1009222
02:00+27˚sw3476100 5.9 1006234
05:00+26˚ssw347799 1.4 1006209
08:00+27˚ssw347699 3.6 1008267
11:00+29˚e226665 2.3 1008582
14:00+28˚ne777755 6.1 1006592
17:00+27˚ene4482100 2.3 1006342
20:00+27˚ese1179100 4.3 1008260